(346748) = 2009 BF17

Discovered at Mount Lemmon on 2007-09-13 by Mt. Lemmon Survey.

Orbit

Orbit type: Main Belt

Note: WebGL enabled browser required.

epoch2023-02-25.0
epoch JD2460000.5
perihelion date2022-07-21.26152
perihelion JD2459781.76152
argument of perihelion (°)202.90805
ascending node (°)201.43217
inclination (°)1.52759
eccentricity0.0715998
perihelion distance (AU)2.6356242
Tisserand w.r.t. Jupiter3.3
ΔV w.r.t. Earth (km/sec)10.1
semimajor axis (AU)2.8388879
mean anomaly (°)45.07198
mean daily motion (°/day)0.20605420
aphelion distance (AU)3.042
period (years)4.78
P-vector [x]0.71525285
P-vector [y]0.64525379
P-vector [z]0.26844163
Q-vector [x]-0.69879787
Q-vector [y]0.66567343
Q-vector [z]0.26184043
absolute magnitude17.5
phase slope0.15
uncertainty0
referenceMPO 730706
observations used115
oppositions13
arc length (days)6496
first opposition used2005
last opposition used2022
residual rms (arc-secs)0.89
perturbers coarse indicatorM-v
perturbers precise indicator003El
first observation date used2005-03-12.0
last observation date used2022-12-24.0
computer nameMPCLINUX
JD of orbit computation2456700.216194
perihelion JD uncertainty (days)5.0155E-04
argument of perihelion uncertainty (°)2.6679E-04
ascending node uncertainty (°)2.4004E-04
inclination uncertainty (°)7.8680E-06
eccentricity uncertainty 1.0189E-07
perihelion distance uncertainty (AU)2.9583E-07
Minimum Orbit Intersection Distances (in AU)
for orbit epoch: 2460000.5, reference: E2022-YF5
Mercury2.31302
Venus1.91277
Earth1.6429
Mars1.12162
Jupiter2.24344
Saturn6.34664
Uranus15.4841
Neptune27.1996

Observations

119 total observations over interval: 2005 03 12.39491 – 2022 12 24.262579
These data are available for download (format description).

